[[{"header":{"parameterUnit":"m.s-1","parameterCategory":1,"la1":30.2992,"la2":30.254,"lo1":-89.0895,"lo2":-89.0443,"dy":0.0025,"dx":0.0025,"nx":19,"ny":19,"refTime":"2026-04-03T03:00:00:Z","depth":0,"parameterNumber":2,"parameterNumberName":"U-component_of_WINDS"},"data":[0,0,0,-2.8259,-2.8261,-2.8392,-2.8393,-2.8559,-2.856,0,0,0,0,0,0,0,0,0,0,0,-2.8219,-2.822,-2.8258,-2.8262,-2.8392,-2.8393,-2.8559,-2.856,0,0,0,0,0,0,0,0,0,0,0,-2.8218,-2.8219,-2.8221,-2.8262,-2.8392,-2.8393,-2.8558,-2.846,0,0,0,0,0,0,0,0,0,0,-2.8334,-2.8295,-2.8219,-2.8221,-2.8263,-2.8392,-2.8393,-2.8456,-2.8466,-2.8499,0,-2.8527,0,-2.8546,-2.8571,-2.8572,0,0,0,-2.8263,-2.8286,-2.8322,-2.8221,-2.8264,-2.8392,-2.8334,-2.8462,-2.8474,-2.8514,-2.8529,-2.8536,-2.8549,-2.8572,-2.8573,-2.8755,-2.8756,0,0,-2.8256,-2.8242,-2.8314,-2.833,-2.8309,-2.8329,-2.8338,-2.8469,-2.8486,-2.853,-2.854,-2.8552,-2.8574,-2.8575,-2.8755,-2.8755,0,0,0,-2.8234,-2.8236,-2.827,-2.8323,-2.8347,-2.8333,-2.8343,-2.848,-2.8492,-2.8541,-2.8554,-2.8575,-2.8577,-2.8754,-2.8755,-2.8779,0,0,0,-2.823,-2.8224,-2.8266,-2.8259,-2.8344,-2.8415,-2.8351,-2.8483,-2.8498,-2.8553,-2.8575,-2.8578,-2.8753,-2.8754,-2.8776,-2.8792,0,0,0,-2.8211,-2.8222,-2.824,-2.8258,-2.8313,-2.8413,-2.8433,-2.8487,-2.8506,-2.8572,-2.8579,-2.8752,-2.8754,-2.8774,-2.8788,-2.8835,0,0,0,-2.8186,-2.826,-2.824,-2.8328,-2.8312,-2.8427,-2.8432,-2.8518,-2.8578,-2.8575,-2.8753,-2.8755,-2.8773,-2.8786,-2.8832,-2.8871,-2.8885,0,0,-2.8272,-2.827,-2.8323,-2.8309,-2.8422,-2.8408,-2.8526,-2.8595,-2.8616,-2.8708,-2.8713,-2.8777,-2.8788,-2.8834,-2.8975,-2.8987,0,0,0,-2.8345,-2.8382,-2.8416,-2.8471,-2.8525,-2.8573,-2.8625,-2.8651,-2.873,-2.866,-2.8807,-2.8815,-2.8842,-2.8861,-2.8871,-2.8895,-2.8763,-2.8763,-2.8763,-2.8445,-2.8466,-2.8554,-2.8591,-2.8645,-2.8698,-2.8744,-2.8788,-2.8794,-2.8829,-2.8856,-2.8939,-2.896,-2.8968,-2.8993,-2.8879,-2.8879,-2.8879,-2.8879,-2.8571,-2.8627,-2.8633,-2.8721,-2.8743,-2.8818,-2.8872,-2.8874,-2.8947,-2.892,-2.8946,-2.8913,-2.898,-2.9003,-2.8881,-2.8881,-2.8881,-2.888,-2.888,-2.8638,-2.8668,-2.8698,-2.878,-2.8842,-2.8877,-2.8947,-2.8965,-2.8983,-2.9009,-2.9039,-2.9038,-2.904,-2.9022,-2.9022,-2.9022,-2.9023,-2.9023,-2.9023,-2.8695,-2.8727,-2.8783,-2.8846,-2.8884,-2.8937,-2.8991,-2.903,-2.9077,-2.9085,-2.9086,-2.9088,-2.8983,-2.8955,-2.9028,-2.9027,-2.9026,-2.9026,-2.9026,-2.8813,-2.8789,-2.8875,-2.8913,-2.8989,-2.9049,-2.9071,-2.9148,-2.9183,-2.9217,-2.9214,-2.9133,-2.9133,-2.9126,-2.9103,-2.921,-2.921,-2.921,-2.921,-2.8869,-2.8871,-2.8962,-2.9021,-2.9082,-2.9111,-2.9208,-2.9252,-2.9293,-2.9316,-2.9304,-2.9276,-2.9267,-2.9272,-2.9261,-2.924,-2.938,-2.938,-2.938,-2.8943,-2.8951,-2.9029,-2.9068,-2.9129,-2.9181,-2.9272,-2.9341,-2.9384,-2.9387,-2.9334,-2.9327,-2.9282,-2.9266,-2.9267,-2.9249,-2.9211,0,0]},{"header":{"parameterUnit":"m.s-1","parameterCategory":1,"la1":30.2992,"la2":30.254,"lo1":-89.0895,"lo2":-89.0443,"dy":0.0025,"dx":0.0025,"nx":19,"ny":19,"refTime":"2026-04-03T03:00:00:Z","depth":0,"parameterNumber":3,"parameterNumberName":"V-component_of_WINDS"},"data":[0,0,0,3.2451,3.2453,3.2581,3.2581,3.2738,3.2739,0,0,0,0,0,0,0,0,0,0,0,3.241,3.2411,3.2451,3.2454,3.2581,3.2581,3.2737,3.2739,0,0,0,0,0,0,0,0,0,0,0,3.2409,3.241,3.2412,3.2454,3.258,3.2581,3.2737,3.2643,0,0,0,0,0,0,0,0,0,0,3.2521,3.248,3.241,3.2412,3.2455,3.258,3.2581,3.2639,3.2649,3.2678,0,3.2702,0,3.2723,3.2749,3.275,0,0,0,3.2456,3.2471,3.2509,3.2412,3.2456,3.258,3.2524,3.2645,3.2656,3.2691,3.2705,3.2711,3.2726,3.275,3.2751,3.291,3.291,0,0,3.2449,3.2431,3.25,3.2516,3.2496,3.252,3.2528,3.2652,3.2665,3.2705,3.2714,3.2728,3.2751,3.2752,3.2909,3.291,0,0,0,3.2427,3.2425,3.246,3.2509,3.2533,3.2523,3.2533,3.2659,3.2672,3.2716,3.273,3.2752,3.2754,3.2908,3.2909,3.2924,0,0,0,3.2423,3.2413,3.2457,3.2447,3.253,3.2598,3.2537,3.2664,3.2678,3.2729,3.2752,3.2755,3.2908,3.2909,3.2922,3.2934,0,0,0,3.2403,3.2411,3.2428,3.2446,3.25,3.2596,3.2616,3.2667,3.2687,3.275,3.2756,3.2907,3.2909,3.292,3.2931,3.2972,0,0,0,3.2375,3.2437,3.2428,3.2503,3.2499,3.2604,3.2616,3.2695,3.275,3.2753,3.2908,3.2909,3.292,3.2929,3.297,3.3003,3.3015,0,0,3.2443,3.2445,3.2491,3.2486,3.2589,3.2586,3.2691,3.2759,3.2781,3.2866,3.287,3.2923,3.2931,3.2971,3.3086,3.3095,0,0,0,3.2506,3.2539,3.257,3.2623,3.2677,3.2725,3.2779,3.2804,3.2877,3.2821,3.2948,3.2954,3.2978,3.2995,3.3003,3.3025,3.2916,3.2916,3.2916,3.2576,3.2603,3.2681,3.2723,3.2774,3.2831,3.2875,3.2919,3.2929,3.2959,3.2984,3.3051,3.307,3.3076,3.3099,3.3003,3.3003,3.3003,3.3003,3.268,3.2731,3.2746,3.2827,3.2854,3.2923,3.298,3.2985,3.3053,3.3033,3.3056,3.3032,3.3085,3.3107,3.3004,3.3004,3.3004,3.3004,3.3004,3.2729,3.2759,3.2789,3.287,3.2929,3.297,3.3035,3.3057,3.3079,3.3101,3.3132,3.3131,3.3135,3.3114,3.3114,3.3115,3.3115,3.3115,3.3115,3.2769,3.2803,3.2856,3.292,3.2958,3.3011,3.3069,3.3107,3.3155,3.3166,3.3166,3.3175,3.3085,3.3063,3.3119,3.3118,3.3118,3.3117,3.3117,3.2865,3.2847,3.2928,3.2967,3.3045,3.3103,3.3132,3.3207,3.3242,3.3274,3.3278,3.3208,3.321,3.3204,3.3186,3.3271,3.3271,3.3271,3.3271,3.2907,3.2911,3.3001,3.3061,3.3122,3.3156,3.3248,3.3295,3.334,3.3363,3.3354,3.3331,3.3324,3.3331,3.3323,3.3306,3.342,3.342,3.342,3.2969,3.298,3.3054,3.3099,3.3162,3.3216,3.3304,3.3372,3.3419,3.3426,3.3382,3.3376,3.334,3.3326,3.3332,3.3318,3.3287,0,0]}]]